Tracking 18945 objects as of 19-Jan-2018
HD Live streaming from Space Station
objects crossing your sky now

MOLNIYA 1-63

Track MOLNIYA 1-63 now!
MOLNIYA 1-63 is classified as:


NORAD ID: 15429
Int'l Code: 1984-124A
Perigee: 1,796.6 km
Apogee: 38,531.8 km
Inclination: 64.1 °
Period: 717.0 minutes
Semi major axis: 26535 km
RCS: 15.7385 m2 (large)
Launch date: December 14, 1984
Source: Commonwealth of Independent States (former USSR) (CIS)
Launch site: PLESETSK MISSILE AND SPACE COMPLEX (PKMTR)
aabbcc
Your satellite tracking list
Your tracking list is empty




NASA's NSSDC Master Catalog

Two Line Element Set (TLE):
1 15429U 84124A   18019.11162091 -.00000929  00000-0  00000+0 0  9990
2 15429  64.0963 328.7774 6921979 271.6599 209.1097  2.00848959242507
Source of the keplerian elements: AFSPC